FW0209 Weather Reports


time (UTC)temp
C
wind
direction
speed
KPH
gust
KPH
rain 1hr
cm
rain 24hr
cm
rain mn
cm
humidity
%
barometer
mb
20260906104514 31 222 3.2 11.3 0.00 0.00 0.00 32 1025.4
20260906103021 31 229 0.0 4.8 0.00 0.00 0.00 35 1025.4
20260906101515 30 230 3.2 8.0 0.00 0.00 0.00 37 1025.6
20260906100021 29 270 1.6 11.3 0.00 0.00 0.00 39 1025.8
20260906094531 28 252 0.0 12.9 0.00 0.00 0.00 41 1025.9
20260906093022 27 254 3.2 8.0 0.00 0.00 0.00 41 1026.0
20260906091513 27 275 0.0 4.8 0.00 0.00 0.00 45 1026.0
20260906090022 27 280 0.0 3.2 0.00 0.00 0.00 46 1026.1
20260906084516 26 278 0.0 1.6 0.00 0.00 0.00 48 1026.1
20260906083024 26 277 1.6 8.0 0.00 0.00 0.00 49 1026.0
20260906081521 25 279 1.6 6.4 0.00 0.00 0.00 50 1026.0
20260906080026 25 294 0.0 0.0 0.00 0.00 0.00 51 1025.9
20260906074515 24 294 0.0 3.2 0.00 0.00 0.00 53 1025.9
20260906073027 23 292 0.0 0.0 0.00 0.00 0.00 55 1026.0
20260906071516 22 295 0.0 0.0 0.00 0.00 0.00 56 1025.9
20260906070023 21 295 0.0 0.0 0.00 0.00 0.00 61 1025.9
20260906064517 20 291 0.0 0.0 0.00 0.00 0.00 64 1025.9
20260906063017 19 293 0.0 0.0 0.00 0.00 0.00 67 1025.9
20260906061524 18 298 0.0 0.0 0.00 0.00 0.00 68 1025.9
20260906060016 18 289 0.0 3.2 0.00 0.00 0.00 71 1026.0
20260906054525 17 286 0.0 0.0 0.00 0.00 0.00 73 1025.8
20260906053049 16 288 0.0 0.0 0.00 0.00 0.00 73 1025.5
20260906051520 16 261 0.0 3.2 0.00 0.00 0.00 74 1025.4
20260906050050 15 248 0.0 4.8 0.00 0.00 0.00 74 1025.4
20260906044520 15 250 0.0 4.8 0.00 0.00 0.00 75 1025.3
20260906043027 16 250 6.4 12.9 0.00 0.00 0.00 75 1025.3
20260906041521 16 250 4.8 8.0 0.00 0.00 0.00 74 1025.2
20260906040029 16 250 1.6 4.8 0.00 0.00 0.00 74 1025.0
20260906034521 16 250 3.2 8.0 0.00 0.00 0.00 73 1025.0
20260906033028 16 250 3.2 6.4 0.00 0.00 0.00 72 1025.0
20260906031517 16 250 0.0 0.0 0.00 0.00 0.00 72 1025.0
20260906030030 16 250 1.6 3.2 0.00 0.00 0.00 72 1025.1
20260906024538 16 250 0.0 1.6 0.00 0.00 0.00 71 1025.1
20260906023042 17 251 0.0 4.8 0.00 0.00 0.00 71 1025.1
20260906021532 17 252 0.0 0.0 0.00 0.00 0.00 69 1025.0
20260906020022 17 254 0.0 3.2 0.00 0.00 0.00 69 1024.9
20260906014533 17 256 0.0 0.0 0.00 0.00 0.00 69 1025.1
20260906013025 17 263 0.0 0.0 0.00 0.00 0.00 68 1025.0
20260906011520 17 264 0.0 1.6 0.00 0.00 0.00 68 1025.1
20260906010030 17 264 4.8 9.7 0.00 0.00 0.00 67 1025.1
20260906004522 17 263 1.6 11.3 0.00 0.00 0.00 69 1025.0
20260906003025 17 263 6.4 9.7 0.00 0.00 0.00 69 1025.0
20260906001517 18 271 8.0 12.9 0.00 0.00 0.00 68 1025.1
20260906000027 18 272 3.2 6.4 0.00 0.00 0.00 68 1025.1
20260905234518 18 275 4.8 9.7 0.00 0.00 0.00 66 1025.2
20260905233025 19 273 4.8 6.4 0.00 0.00 0.00 64 1025.2
20260905231519 20 279 3.2 4.8 0.00 0.00 0.00 63 1025.1
20260905230048 20 281 0.0 0.0 0.00 0.00 0.00 62 1025.1
20260905224517 20 280 0.0 0.0 0.00 0.00 0.00 61 1025.1
20260905223028 20 284 4.8 8.0 0.00 0.00 0.00 59 1025.1
20260905221518 21 282 6.4 12.9 0.00 0.00 0.00 59 1025.0
20260905220024 21 279 4.8 9.7 0.00 0.00 0.00 59 1024.9
20260905214518 21 281 6.4 14.5 0.00 0.00 0.00 60 1024.8
20260905213023 21 283 8.0 12.9 0.00 0.00 0.00 59 1024.7
20260905211532 21 286 11.3 16.1 0.00 0.00 0.00 59 1024.7
20260905210025 22 278 8.0 14.5 0.00 0.00 0.00 59 1024.7
20260905204531 22 297 11.3 14.5 0.00 0.00 0.00 57 1024.6
20260905203041 22 273 11.3 14.5 0.00 0.00 0.00 58 1024.6
20260905201515 22 285 8.0 11.3 0.00 0.00 0.00 57 1024.7
20260905200018 23 284 6.4 12.9 0.00 0.00 0.00 54 1024.6
20260905194530 23 277 8.0 12.9 0.00 0.00 0.00 53 1024.6
20260905193049 24 334 3.2 9.7 0.00 0.00 0.00 52 1024.4
20260905191522 24 317 6.4 9.7 0.00 0.00 0.00 51 1024.3
20260905190031 25 298 6.4 11.3 0.00 0.00 0.00 50 1024.1
20260905184540 25 339 3.2 8.0 0.00 0.00 0.00 49 1024.1
20260905183031 25 214 3.2 11.3 0.00 0.00 0.00 47 1024.0
20260905181517 26 261 4.8 11.3 0.00 0.00 0.00 46 1023.8
20260905180024 26 266 6.4 14.5 0.00 0.00 0.00 45 1023.6
20260905174514 27 265 9.7 12.9 0.00 0.00 0.00 43 1023.3
20260905173042 27 287 8.0 16.1 0.00 0.00 0.00 41 1023.2
20260905171532 28 246 9.7 17.7 0.00 0.00 0.00 39 1023.2
20260905170048 28 325 9.7 22.5 0.00 0.00 0.00 37 1023.2
20260905164513 29 333 9.7 20.9 0.00 0.00 0.00 35 1023.2
20260905163024 30 308 8.0 25.7 0.00 0.00 0.00 35 1023.1
20260905161519 30 289 16.1 22.5 0.00 0.00 0.00 32 1023.0
20260905160029 31 313 12.9 22.5 0.00 0.00 0.00 32 1023.0
20260905154515 31 338 14.5 22.5 0.00 0.00 0.00 30 1022.9
20260905153029 31 298 14.5 27.4 0.00 0.00 0.00 29 1022.9
20260905151530 31 313 14.5 25.7 0.00 0.00 0.00 28 1022.9
20260905150054 31 313 14.5 24.1 0.00 0.00 0.00 27 1022.8
20260905144520 31 349 16.1 27.4 0.00 0.00 0.00 28 1022.9
20260905143101 31 331 17.7 27.4 0.00 0.00 0.00 28 1022.9
20260905141522 31 338 16.1 29.0 0.00 0.00 0.00 30 1023.0
20260905140029 32 269 14.5 27.4 0.00 0.00 0.00 30 1023.0
20260905134517 32 331 12.9 29.0 0.00 0.00 0.00 31 1023.1
20260905133024 32 294 14.5 27.4 0.00 0.00 0.00 30 1023.2
20260905131514 32 347 16.1 27.4 0.00 0.00 0.00 31 1023.3
20260905130025 31 317 12.9 27.4 0.00 0.00 0.00 32 1023.4
20260905124534 32 331 14.5 25.7 0.00 0.00 0.00 31 1023.4
20260905123059 32 246 9.7 25.7 0.00 0.00 0.00 31 1023.5
20260905121523 31 280 12.9 19.3 0.00 0.00 0.00 31 1023.7
20260905120031 31 257 12.9 24.1 0.00 0.00 0.00 32 1023.8
20260905114536 31 282 11.3 17.7 0.00 0.00 0.00 32 1023.9
20260905113059 31 247 9.7 17.7 0.00 0.00 0.00 33 1024.0
20260905111525 31 224 8.0 12.9 0.00 0.00 0.00 36 1024.1
20260905110032 31 246 8.0 16.1 0.00 0.00 0.00 37 1024.1